Find Starlink 31416

NORAD ID: 59355 Int'l Des: 2024-060 Owner: SPXS Country: US Constellation: starlink operational
LEOCIRCULAR

实时位置

正在加载3D地球...

关于 Starlink 31416

正在加载描述...

即将过境

Passes for default location (London). Set your location on the main map for personalized predictions.

高度历史

Loading altitude history...

两行轨道根数

1 59355U 24060H 26126.50064375 .00000670 00000-0 33883-4 0 9998
2 59355 43.0044 293.4234 0001849 266.4031 93.6609 15.27568482118905
Epoch: May 6, 2026 • Age: 19 hours

当前状态

高度 485.9 km
速度 7.63 km/s
星下点 36.41°N, 81.34°E
发射日期 Mar 31, 2024
运行时间 2 years
类型 internet

技术详情

分类 Payload
质量 730.00 kg
干质量 700.00 kg
总质量 730.00 kg
长度 0.30 m
直径 4.10 m
跨度 29.00 m
形状 Box + pan
制造商 SPXS
平台类型 Starlink V2M
阶段状态 In Orbit
所有者/国家 SPXS/US

Most Searched